Location: Guayaquil
(2.1667°S, 79.9000°W)
Time: 21:59:16
(UTC-05:00)

Amateur Radio Satellites - All Passes

Search period start: 20 November 2017 21:29
Search period end: 21 November 2017 21:29
Location: Guayaquil, 2.1667°S, 79.9000°W

Satellite Date Start Highest point End Downlink Frequencies (MHz)
Time Altitude Azimuth
FO-29 20 Nov 21:36:12 21:42:07 27° 285° (WNW) 21:47:36 435.910
DELFI C3 20 Nov 21:45:38 21:49:30 61° 258° (WSW) 21:53:23 145.870
SRMSAT 20 Nov 21:50:14 21:51:20 10° 11° (NNE) 21:52:25 437.500
JUGNU 20 Nov 21:52:52 21:58:24 43° 21° (NNE) 22:03:59 437.505
PRISM 20 Nov 22:08:31 22:12:25 42° 102° (ESE) 22:16:18 437.425
PCSat 20 Nov 22:20:02 22:24:05 21° 110° (ESE) 22:28:05 145.827
UNISAT 6 20 Nov 22:36:14 22:39:12 18° 281° (W) 22:42:11 437.425
TIGRISAT 20 Nov 22:40:47 22:43:41 18° 281° (W) 22:46:36 435.000
AIST 2D 20 Nov 22:46:28 22:49:36 30° 101° (ESE) 22:52:46 435.315
ESTCUBE 1 20 Nov 22:49:25 22:52:54 22° 78° (ENE) 22:56:21 437.505/2401.250
QB50P2 20 Nov 23:08:26 23:11:25 19° 103° (ESE) 23:14:26 145.880/145.840
LO-87 20 Nov 23:23:17 23:26:53 61° 259° (WSW) 23:30:27 145.935 - 145.965
SRMSAT 20 Nov 23:36:32 23:41:12 23° 19° (NNE) 23:45:53 437.500
JUGNU 20 Nov 23:41:35 23:47:26 68° 201° (SSW) 23:53:21 437.505
DUCHIFAT 1 20 Nov 23:57:37 00:01:43 64° 102° (ESE) 00:05:51 145.980
PCSat 21 Nov 00:02:49 00:07:12 25° 289° (WNW) 00:11:34 145.827
EO-79 21 Nov 00:04:21 00:08:29 69° 282° (WNW) 00:12:40 145.935-145.965
NANOSAT C BR1 21 Nov 00:07:53 00:12:01 72° 282° (WNW) 00:16:12 145.865
NO-84 21 Nov 00:10:37 00:12:14 12° 56° (NE) 00:13:50 435.350 FM
SPROUT 21 Nov 00:11:52 00:16:04 52° 78° (ENE) 00:20:14 437.525
O/OREOS (USA 219) 21 Nov 00:19:27 00:23:36 38° 76° (ENE) 00:27:46 437.305
POLYITAN 1 21 Nov 00:19:45 00:23:40 40° 281° (WNW) 00:27:37 437.675
Oscar 19 21 Nov 00:25:56 00:28:06 13° 104° (ESE) 00:30:16 437.125/150
ESTCUBE 1 21 Nov 00:26:41 00:29:24 16° 257° (WSW) 00:32:08 437.505/2401.250
QB50P2 21 Nov 00:44:20 00:46:56 16° 281° (W) 00:49:32 145.880/145.840
Gurwin Techsat 1B 21 Nov 00:47:05 00:50:08 16° 104° (ESE) 00:53:10 435.225
VELOX 1 21 Nov 00:47:11 00:51:36 87° 253° (WSW) 00:56:01 145.980
BUGSAT 1 21 Nov 00:51:52 00:55:48 62° 101° (ESE) 00:59:47 437.445
50 SAT 21 Nov 01:18:07 01:21:08 37° 79° (ENE) 01:24:09 437.505
BEESAT 3 21 Nov 01:19:59 01:23:51 71° 113° (ESE) 01:27:47 437.485
SRMSAT 21 Nov 01:24:38 01:30:33 62° 21° (NNE) 01:36:30 437.500
JUGNU 21 Nov 01:31:43 01:36:41 27° 196° (SSW) 01:41:42 437.505
DX 1 21 Nov 01:33:57 01:38:14 60° 78° (ENE) 01:42:31 434.975-435.025
NO-84 21 Nov 01:45:56 01:49:25 29° 239° (WSW) 01:52:42 435.350 FM
Oscar 19 21 Nov 02:02:18 02:07:05 39° 282° (WNW) 02:11:54 437.125/150
M-CUBED/EXP-1 PRIME 21 Nov 02:07:40 02:11:50 34° 105° (ESE) 02:15:54 437.505
UKube-1 21 Nov 02:16:47 02:21:02 59° 258° (WSW) 02:25:16 .
Gurwin Techsat 1B 21 Nov 02:25:02 02:29:45 33° 282° (WNW) 02:34:31 435.225
AO-7 21 Nov 02:29:00 02:35:53 29° 107° (ESE) 02:42:45 .
BEESAT 2 21 Nov 02:30:38 02:34:28 55° 292° (WNW) 02:38:21 435.950
BEESAT 21 Nov 03:04:22 03:08:56 44° 78° (ENE) 03:13:27 436.000
ITUPSAT 1 21 Nov 03:13:41 03:18:26 58° 78° (ENE) 03:23:07 437.325
SRMSAT 21 Nov 03:14:00 03:19:48 49° 200° (SSW) 03:25:37 437.500
AO-85 21 Nov 03:15:38 03:19:29 47° 291° (WNW) 03:23:12 145.980
JUGNU 21 Nov 03:23:03 03:26:26 15° 187° (S) 03:29:49 437.505
MOZHAYETS 4 21 Nov 03:29:01 03:33:33 57° 258° (WSW) 03:38:02
CUBESAT XI-V 21 Nov 03:40:27 03:44:21 28° 79° (ENE) 03:48:14 437.345
M-CUBED/EXP-1 PRIME 21 Nov 03:44:03 03:45:53 12° 286° (WNW) 03:47:43 437.505
ITAMSAT 1 21 Nov 03:53:47 03:58:56 68° 282° (WNW) 04:04:04 435.822/435.867
RS-15 21 Nov 03:55:50 04:01:35 15° 67° (ENE) 04:07:10 29.354- 29.394
YUBILEINY 21 Nov 04:13:51 04:19:33 19° 94° (E) 04:25:12 435.215
AO-7 21 Nov 04:20:42 04:28:14 39° 286° (WNW) 04:35:51 .
FALCONSAT 3 21 Nov 04:28:38 04:29:54 11° 145° (SE) 04:31:10 435.103
DOVE 4 21 Nov 04:38:27 04:42:58 42° 101° (ESE) 04:47:15 437.250
SRMSAT 21 Nov 05:04:49 05:09:22 22° 194° (SSW) 05:13:55 437.500
JUGNU 21 Nov 05:13:40 05:16:32 13° 177° (S) 05:19:23 437.505
CUBESAT XI-V 21 Nov 05:19:13 05:21:25 13° 257° (WSW) 05:23:38 437.345
KKS-1 21 Nov 05:22:19 05:26:47 74° 258° (WSW) 05:31:14 437.445
CUTE-I 21 Nov 05:25:46 05:29:35 20° 104° (ESE) 05:33:24 437.470
XW-2C 21 Nov 05:26:34 05:29:32 21° 102° (ESE) 05:32:30 145.795 - 145.815
LilacSat-2 21 Nov 05:28:05 05:31:17 25° 102° (ESE) 05:34:31 437.200
XW-2F 21 Nov 05:37:05 05:40:22 28° 101° (ESE) 05:43:43 145.980 - 146.000
nSIGHT-1 21 Nov 05:41:22 05:43:20 15° 55° (NE) 05:45:17 .
STARS 21 Nov 05:47:02 05:51:27 74° 78° (ENE) 05:55:52 437.465
RS-15 21 Nov 06:02:31 06:13:39 77° 250° (WSW) 06:24:31 29.354- 29.394
KAITUO 1B 21 Nov 06:04:48 06:08:31 58° 101° (E) 06:12:16 145.475/437.950
FALCONSAT 3 21 Nov 06:05:20 06:08:58 66° 322° (NW) 06:12:37 435.103
YUBILEINY 21 Nov 06:07:38 06:15:58 52° 273° (W) 06:24:21 435.215
XW-2D 21 Nov 06:19:24 06:23:03 46° 281° (W) 06:26:46 145.860 - 145.880
CUBEBUG 2 21 Nov 06:23:34 06:24:00 10° 103° (ESE) 06:24:25 437.445
ISS 21 Nov 06:23:41 06:26:51 51° 55° (NE) 06:30:01 437.550
HO-68 21 Nov 06:27:08 06:33:41 39° 105° (ESE) 06:40:13 435.675
XW-2B 21 Nov 06:34:33 06:37:52 28° 281° (W) 06:41:13 145.730 - 145.750
NUDT-PHONESAT 21 Nov 06:50:13 06:53:18 25° 281° (W) 06:56:25 437.300
SRMSAT 21 Nov 06:56:30 06:59:25 14° 184° (S) 07:02:21 437.500
CUTE 1.7 + AOD 2 21 Nov 07:00:57 07:05:14 88° 112° (ESE) 07:09:32 437.475
JUGNU 21 Nov 07:02:06 07:06:29 20° 167° (SSE) 07:10:50 437.505
XW-2C 21 Nov 07:02:14 07:03:27 11° 281° (W) 07:04:39 145.795 - 145.815
CUTE-I 21 Nov 07:04:58 07:09:20 26° 282° (WNW) 07:13:44 437.470
ZACube-1 21 Nov 07:10:55 07:11:39 10° 103° (ESE) 07:12:23 437.345
UWE-3 21 Nov 07:17:14 07:20:59 32° 102° (ESE) 07:24:48 435.000/436.395/437.385
nSIGHT-1 21 Nov 07:17:31 07:19:21 14° 233° (SW) 07:21:11 .
FO-29 21 Nov 07:25:05 07:27:02 12° 74° (ENE) 07:29:01 435.910
SEEDS 21 Nov 07:31:42 07:35:53 62° 282° (WNW) 07:40:06 437.485
AAUSAT CUBESAT 2 21 Nov 07:38:50 07:42:54 53° 101° (ESE) 07:46:58 437.432
STRAND 1 21 Nov 07:46:09 07:51:13 58° 257° (WSW) 07:56:16 437.568
CUBEBUG 2 21 Nov 07:56:44 08:00:18 28° 281° (W) 08:03:55 437.445
AO-73 21 Nov 07:58:31 08:02:34 47° 102° (ESE) 08:06:44 145.935
XW-2A 21 Nov 08:13:19 08:16:12 26° 281° (W) 08:19:06 145.665 - 145.685
Oscar 11 21 Nov 08:15:07 08:19:18 49° 102° (ESE) 08:23:31 .
HO-68 21 Nov 08:15:48 08:21:05 22° 284° (WNW) 08:26:23 435.675
SO-50 21 Nov 08:31:11 08:35:56 82° 69° (ENE) 08:40:43 436.795
ZACube-1 21 Nov 08:43:55 08:47:35 29° 281° (W) 08:51:21 437.345
SRMSAT 21 Nov 08:46:30 08:49:41 15° 174° (S) 08:52:52 437.500
JUGNU 21 Nov 08:50:14 08:55:57 44° 161° (SSE) 09:01:37 437.505
FO-29 21 Nov 09:06:05 09:11:34 52° 258° (WSW) 09:17:42 435.910
UNISAT 6 21 Nov 09:11:02 09:14:56 26° 79° (ENE) 09:18:45 437.425
TIGRISAT 21 Nov 09:15:22 09:19:17 26° 79° (E) 09:23:08 435.000
EO-88 21 Nov 09:15:42 09:18:02 16° 102° (ESE) 09:20:23 145.990 - 145.960
Max Valier Satellite 21 Nov 09:16:29 09:19:39 27° 101° (ESE) 09:22:51 145.860
DELFI C3 21 Nov 09:44:35 09:48:29 58° 281° (W) 09:52:22 145.870
PRISM 21 Nov 10:09:48 10:13:38 40° 78° (ENE) 10:17:28 437.425
AIST 2D 21 Nov 10:32:07 10:34:11 15° 80° (E) 10:36:14 435.315
SRMSAT 21 Nov 10:34:48 10:39:37 25° 165° (SSE) 10:44:26 437.500
JUGNU 21 Nov 10:39:05 10:45:02 69° 338° (NNW) 10:50:57 437.505
UNISAT 6 21 Nov 10:48:35 10:51:19 15° 257° (WSW) 10:54:03 437.425
EO-88 21 Nov 10:49:36 10:51:24 13° 281° (W) 10:53:12 145.990 - 145.960
TIGRISAT 21 Nov 10:52:58 10:55:38 15° 257° (WSW) 10:58:18 435.000
PCSat 21 Nov 10:56:06 11:01:22 56° 71° (ENE) 11:06:39 145.827
ESTCUBE 1 21 Nov 11:03:42 11:07:55 39° 102° (ESE) 11:12:10 437.505/2401.250
LO-87 21 Nov 11:11:56 11:15:26 89° 101° (E) 11:18:58 145.935 - 145.965
QB50P2 21 Nov 11:13:14 11:16:29 21° 79° (ENE) 11:19:43 145.880/145.840
DUCHIFAT 1 21 Nov 12:01:38 12:05:52 69° 79° (E) 12:10:04 145.980
AIST 2D 21 Nov 12:05:41 12:07:04 12° 258° (WSW) 12:08:27 435.315
EO-79 21 Nov 12:09:08 12:13:22 63° 258° (WSW) 12:17:34 145.935-145.965
NANOSAT C BR1 21 Nov 12:12:16 12:16:31 67° 258° (WSW) 12:20:43 145.865
SPROUT 21 Nov 12:19:47 12:23:59 75° 101° (E) 12:28:13 437.525
SRMSAT 21 Nov 12:23:12 12:29:04 61° 160° (SSE) 12:34:55 437.500
POLYITAN 1 21 Nov 12:24:45 12:28:43 37° 258° (WSW) 12:32:39 437.675
O/OREOS (USA 219) 21 Nov 12:28:51 12:33:26 80° 104° (ESE) 12:38:00 437.305
JUGNU 21 Nov 12:29:21 12:34:11 25° 341° (NNW) 12:39:00 437.505
QB50P2 21 Nov 12:49:29 12:51:59 15° 257° (WSW) 12:54:28 145.880/145.840
BUGSAT 1 21 Nov 12:53:28 12:57:40 62° 79° (E) 13:01:50 437.445
Oscar 19 21 Nov 12:56:13 13:00:37 29° 78° (ENE) 13:04:59 437.125/150
50 SAT 21 Nov 12:57:52 13:00:01 17° 102° (ESE) 13:02:11 437.505
VELOX 1 21 Nov 12:59:47 13:04:05 52° 282° (WNW) 13:08:23 145.980
BEESAT 3 21 Nov 13:12:36 13:16:19 52° 68° (ENE) 13:20:01 437.485
Gurwin Techsat 1B 21 Nov 13:22:28 13:27:26 40° 78° (ENE) 13:32:21 435.225
NO-84 21 Nov 13:27:21 13:29:46 21° 303° (WNW) 13:32:20 435.350 FM
DX 1 21 Nov 13:44:30 13:48:51 86° 277° (W) 13:53:12 434.975-435.025
AO-85 21 Nov 13:49:52 13:52:30 14° 69° (ENE) 13:55:10 145.980
M-CUBED/EXP-1 PRIME 21 Nov 14:06:41 14:09:01 18° 74° (ENE) 14:11:22 437.505
MOZHAYETS 4 21 Nov 14:12:24 14:14:18 12° 103° (ESE) 14:16:12
SRMSAT 21 Nov 14:12:35 14:18:16 48° 339° (NNW) 14:23:57 437.500
JUGNU 21 Nov 14:22:10 14:23:48 11° 348° (NNW) 14:25:25 437.505
BEESAT 2 21 Nov 14:24:27 14:28:20 69° 249° (WSW) 14:32:10 435.950
UKube-1 21 Nov 14:26:22 14:30:22 39° 282° (WNW) 14:34:24 .
Oscar 19 21 Nov 14:36:26 14:39:38 17° 256° (WSW) 14:42:49 437.125/150
ITAMSAT 1 21 Nov 14:50:04 14:53:33 18° 77° (ENE) 14:57:00 435.822/435.867
AO-7 21 Nov 14:53:15 15:00:59 43° 74° (ENE) 15:08:37 .
Gurwin Techsat 1B 21 Nov 15:04:46 15:07:02 13° 256° (WSW) 15:09:19 435.225
BEESAT 21 Nov 15:27:01 15:31:45 84° 284° (WNW) 15:36:32 436.000
AO-85 21 Nov 15:27:48 15:32:40 40° 248° (WSW) 15:37:39 145.980
RS-15 21 Nov 15:35:05 15:41:08 15° 114° (ESE) 15:47:12 29.354- 29.394
ITUPSAT 1 21 Nov 15:36:58 15:41:39 64° 282° (WNW) 15:46:23 437.325
MOZHAYETS 4 21 Nov 15:47:08 15:51:08 30° 281° (WNW) 15:55:10
CUBESAT XI-V 21 Nov 15:58:59 16:03:35 56° 102° (ESE) 16:08:13 437.345
SRMSAT 21 Nov 16:03:37 16:07:41 19° 343° (NNW) 16:11:45 437.500
ITAMSAT 1 21 Nov 16:28:18 16:32:43 28° 257° (WSW) 16:37:09 435.822/435.867
YUBILEINY 21 Nov 16:46:33 16:54:33 39° 87° (E) 17:02:29 435.215
AO-7 21 Nov 16:46:54 16:53:20 26° 252° (WSW) 16:59:46 .
DOVE 4 21 Nov 16:56:47 17:01:23 73° 78° (ENE) 17:06:15 437.250
nSIGHT-1 21 Nov 17:12:42 17:14:30 14° 127° (SE) 17:16:18 .
XW-2C 21 Nov 17:19:50 17:21:58 15° 79° (E) 17:24:05 145.795 - 145.815
LilacSat-2 21 Nov 17:21:52 17:24:27 18° 79° (E) 17:27:01 437.200
XW-2F 21 Nov 17:29:36 17:32:17 19° 79° (E) 17:34:57 145.980 - 146.000
KKS-1 21 Nov 17:36:02 17:40:13 43° 282° (WNW) 17:44:25 437.445
RS-15 21 Nov 17:41:29 17:53:26 84° 291° (WNW) 18:05:46 29.354- 29.394
FALCONSAT 3 21 Nov 17:49:03 17:52:41 62° 38° (NE) 17:56:21 435.103
KAITUO 1B 21 Nov 17:56:01 17:59:26 36° 79° (E) 18:02:49 145.475/437.950
ISS 21 Nov 17:56:40 17:59:52 48° 125° (SE) 18:03:01 437.550
STARS 21 Nov 17:58:53 18:03:13 69° 281° (WNW) 18:07:32 437.465
CUTE-I 21 Nov 18:02:29 18:07:41 53° 77° (ENE) 18:12:51 437.470
XW-2D 21 Nov 18:11:44 18:15:28 68° 259° (W) 18:19:10 145.860 - 145.880
HO-68 21 Nov 18:17:54 18:24:00 30° 76° (ENE) 18:30:04 435.675
XW-2B 21 Nov 18:26:46 18:30:17 39° 258° (WSW) 18:33:48 145.730 - 145.750
CUBEBUG 2 21 Nov 18:32:17 18:35:17 17° 79° (E) 18:38:15 437.445
NUDT-PHONESAT 21 Nov 18:39:48 18:43:14 38° 259° (WSW) 18:46:38 437.300
STRAND 1 21 Nov 18:41:59 18:45:58 23° 103° (ESE) 18:49:58 437.568
YUBILEINY 21 Nov 18:43:59 18:50:56 27° 266° (W) 18:57:57 435.215
nSIGHT-1 21 Nov 18:48:25 18:50:32 16° 305° (NW) 18:52:39 .
XW-2C 21 Nov 18:53:36 18:55:52 15° 258° (WSW) 18:58:07 145.795 - 145.815
LilacSat-2 21 Nov 18:56:41 18:58:26 13° 258° (WSW) 19:00:12 437.200
XW-2F 21 Nov 19:04:47 19:06:06 12° 258° (WSW) 19:07:25 145.980 - 146.000
CUTE 1.7 + AOD 2 21 Nov 19:06:09 19:10:22 83° 261° (W) 19:14:32 437.475
ZACube-1 21 Nov 19:18:06 19:20:25 14° 80° (E) 19:22:42 437.345
UWE-3 21 Nov 19:26:45 19:31:11 45° 79° (E) 19:35:30 435.000/436.395/437.385
FALCONSAT 3 21 Nov 19:30:13 19:31:46 12° 215° (SW) 19:33:19 435.103
SEEDS 21 Nov 19:35:47 19:39:51 57° 259° (WSW) 19:43:55 437.485
AAUSAT CUBESAT 2 21 Nov 19:41:04 19:45:03 52° 79° (E) 19:49:03 437.432
JUGNU 21 Nov 19:50:05 19:54:05 19° 17° (NNE) 19:58:06 437.505
XW-2A 21 Nov 19:54:03 19:57:23 65° 259° (W) 20:00:41 145.665 - 145.685
RS-15 21 Nov 20:02:36 20:05:50 11° 293° (WNW) 20:09:07 29.354- 29.394
HO-68 21 Nov 20:05:21 20:11:24 30° 255° (WSW) 20:17:27 435.675
AO-73 21 Nov 20:06:41 20:11:07 61° 79° (ENE) 20:15:25 145.935
CUBEBUG 2 21 Nov 20:07:47 20:11:37 24° 257° (WSW) 20:15:24 437.445
STRAND 1 21 Nov 20:21:12 20:24:53 20° 282° (WNW) 20:28:36 437.568
Oscar 11 21 Nov 20:22:38 20:26:53 59° 78° (ENE) 20:31:06 .
FO-29 21 Nov 20:40:09 20:47:26 87° 286° (WNW) 20:53:55 435.910
SO-50 21 Nov 20:43:19 20:47:32 41° 291° (WNW) 20:51:43 436.795
ZACube-1 21 Nov 20:52:44 20:56:26 25° 257° (WSW) 21:00:04 437.345
Max Valier Satellite 21 Nov 21:06:53 21:09:23 17° 79° (E) 21:11:51 145.860
